This is the latest recevied weather packets stored in our database for station/object N7TUG-8. If no packets are shown the sender has not sent any weather packets the latest 1 day(s).
| Time | Temp. | Humidity | Pressure | Rain* | Wind** | Luminosity | Snow |
|---|---|---|---|---|---|---|---|
| 1778013482 | 16.11° C | 76% | 1016 hPa | 0 mm | 2.24 m/s, 176° | - | - |
| 1778012722 | 16.67° C | 77% | 1016 hPa | 0 mm | 1.79 m/s, 150° | - | - |
| 1778011951 | 15.56° C | 78% | 1016 hPa | 0 mm | 2.68 m/s, 159° | - | - |
| 1778011901 | 15.56° C | 78% | 1016 hPa | 0 mm | 2.68 m/s, 159° | - | - |
| 1778011096 | 15.56° C | 78% | 1016 hPa | 0 mm | 3.13 m/s, 160° | - | - |
| 1778010367 | 15.56° C | 78% | 1016 hPa | 0 mm | 2.24 m/s, 179° | - | - |
| 1778010311 | 15.56° C | 78% | 1016 hPa | 0 mm | 2.68 m/s, 168° | - | - |
| 1778009611 | 15.56° C | 78% | 1016 hPa | 0 mm | 2.68 m/s, 180° | - | - |
| 1778009491 | 15.56° C | 78% | 1016 hPa | 0 mm | 2.68 m/s, 180° | - | - |
| 1778008781 | 15.56° C | 79% | 1016 hPa | 0 mm | 2.68 m/s, 170° | - | - |
| 1778008626 | 15.56° C | 79% | 1016 hPa | 0 mm | 2.68 m/s, 170° | - | - |
| 1778007917 | 15.56° C | 78% | 1015.9 hPa | 0 mm | 2.68 m/s, 169° | - | - |
| 1778007666 | 15.56° C | 78% | 1015.9 hPa | 0 mm | 1.79 m/s, 151° | - | - |
| 1778007062 | 15.56° C | 80% | 1015.9 hPa | 0 mm | 2.24 m/s, 136° | - | - |
| 1778006871 | 15° C | 80% | 1015.9 hPa | 0 mm | 2.68 m/s, 159° | - | - |
| 1778006061 | 15° C | 79% | 1016 hPa | 0 mm | 2.24 m/s, 151° | - | - |
| 1778005487 | 15° C | 80% | 1016 hPa | 0 mm | 2.68 m/s, 157° | - | - |
| 1778005241 | 15° C | 80% | 1016 hPa | 0 mm | 2.68 m/s, 157° | - | - |
| 1778004336 | 15° C | 80% | 1016 hPa | 0 mm | 2.68 m/s, 154° | - | - |
| 1778003511 | 14.44° C | 81% | 1015.9 hPa | 0 mm | 2.68 m/s, 149° | - | - |
| 1778002907 | 14.44° C | 81% | 1015.9 hPa | 0 mm | 2.24 m/s, 165° | - | - |
| 1778002701 | 14.44° C | 81% | 1015.9 hPa | 0 mm | 2.24 m/s, 146° | - | - |
| 1778002007 | 14.44° C | 81% | 1015.9 hPa | 0 mm | 2.24 m/s, 159° | - | - |
| 1778001861 | 14.44° C | 81% | 1015.8 hPa | 0 mm | 2.24 m/s, 173° | - | - |
| 1778001006 | 14.44° C | 82% | 1015.8 hPa | 0 mm | 2.68 m/s, 158° | - | - |
* Rain latest hour (hover to see other rain measurements)
** Current wind speed in m/s (hover to see current wind gust speed)